DWGW3121 Weather Reports


Display with metric or nautical units.
time (UTC)temp
F
wind
direction
speed
MPH
gust
MPH
rain 1hr
in
rain 24hr
in
rain mn
in
humidity
%
barometer
mb
20260510081103 52 167 2.0 5.0 0.00 0.46 0.00 91 1010.0
20260510080604 52 197 1.0 3.0 0.00 0.46 0.00 91 1010.1
20260510075103 52 231 1.0 2.0 0.00 0.46 0.00 91 1010.6
20260510074604 52 237 1.0 5.0 0.00 0.46 0.00 91 1010.8
20260510074104 52 200 2.0 7.0 0.00 0.46 0.00 91 1010.8
20260510073103 52 217 1.0 5.0 0.00 0.46 0.00 91 1010.9
20260510072604 52 232 2.0 5.0 0.00 0.46 0.00 91 1011.1
20260510072104 52 237 2.0 5.0 0.00 0.46 0.00 91 1011.3
20260510071603 52 237 1.0 2.0 0.00 0.46 0.00 91 1011.2
20260510070104 52 248 1.0 5.0 0.00 0.46 0.00 91 1011.2
20260510065604 52 230 1.0 5.0 0.00 0.46 0.00 92 1011.1
20260510065103 52 231 1.0 3.0 0.00 0.46 0.00 91 1010.9
20260510064604 52 230 1.0 3.0 0.00 0.46 0.00 92 1011.0
20260510064104 52 230 1.0 3.0 0.00 0.46 0.00 92 1010.9
20260510063603 52 230 1.0 3.0 0.00 0.46 0.00 92 1010.8
20260510063103 52 231 2.0 5.0 0.00 0.46 0.00 92 1010.7
20260510062604 52 200 1.0 5.0 0.00 0.46 0.00 92 1010.7
20260510062103 51 140 1.0 5.0 0.00 0.46 0.00 92 1010.4
20260510061604 51 134 1.0 5.0 0.00 0.46 0.00 92 1010.4
20260510061103 51 248 2.0 5.0 0.00 0.46 0.00 92 1010.3
20260510060603 51 149 2.0 2.0 0.00 0.46 0.00 92 1010.2
20260510055603 51 192 1.0 2.0 0.00 0.46 0.00 91 1010.3
20260510055105 51 194 1.0 5.0 0.00 0.46 0.00 91 1010.4
20260510054603 51 193 0.0 1.0 0.00 0.46 0.00 91 1010.4
20260510054103 51 193 1.0 2.0 0.00 0.46 0.00 91 1010.5
20260510053603 51 195 0.0 2.0 0.00 0.46 0.00 91 1010.5
20260510052603 51 195 1.0 3.0 0.00 0.46 0.00 90 1010.6
20260510052103 52 198 1.0 2.0 0.00 0.46 0.00 90 1010.8
20260510051604 52 176 1.0 2.0 0.00 0.46 0.00 90 1010.7
20260510051104 52 202 0.0 2.0 0.00 0.46 0.00 89 1010.7
20260510050603 52 202 1.0 2.0 0.00 0.46 0.00 89 1010.6
20260510050103 52 197 1.0 3.0 0.00 0.46 0.00 89 1010.6
20260510045604 52 197 1.0 3.0 0.00 0.46 0.00 89 1010.5
20260510045104 52 200 1.0 3.0 0.00 0.46 0.00 89 1010.5
20260510044603 53 177 0.0 2.0 0.00 0.46 0.00 89 1010.5
20260510043605 53 184 1.0 2.0 0.00 0.46 0.00 88 1010.4
20260510043104 53 215 1.0 3.0 0.00 0.46 0.00 88 1010.4
20260510042603 53 167 0.0 3.0 0.00 0.46 0.00 88 1010.3
20260510042103 53 178 1.0 2.0 0.00 0.46 0.00 88 1010.3
20260510041603 53 218 2.0 5.0 0.00 0.46 0.00 88 1010.5
20260510041103 53 213 2.0 5.0 0.00 0.46 0.00 88 1010.5
20260510040604 53 160 2.0 6.0 0.00 0.46 0.00 88 1010.5
20260510040104 53 227 2.0 5.0 0.00 0.46 0.00 88 1010.5
20260510035603 53 197 3.0 6.0 0.00 0.46 0.46 88 1010.5
20260510034604 53 199 1.0 3.0 0.00 0.46 0.46 88 1010.5
20260510034105 53 180 2.0 5.0 0.00 0.46 0.46 88 1010.6
20260510033604 53 245 1.0 5.0 0.00 0.46 0.46 88 1010.6
20260510033103 53 202 2.0 3.0 0.00 0.46 0.46 88 1010.4
20260510032604 53 170 1.0 2.0 0.00 0.46 0.46 87 1010.4
20260510032104 53 169 1.0 2.0 0.00 0.46 0.46 87 1010.3
20260510031603 53 215 1.0 3.0 0.00 0.46 0.46 87 1010.3
20260510031103 54 182 1.0 2.0 0.00 0.46 0.46 87 1010.3
20260510030603 54 195 1.0 5.0 0.00 0.46 0.46 87 1010.3
20260510030103 54 207 2.0 5.0 0.00 0.46 0.46 87 1010.4
20260510025103 54 219 2.0 3.0 0.00 0.46 0.46 88 1010.6
20260510024605 54 242 1.0 3.0 0.00 0.46 0.46 88 1010.6
20260510024104 54 241 1.0 3.0 0.00 0.46 0.46 88 1010.4
20260510023604 54 205 2.0 6.0 0.00 0.46 0.46 88 1010.3
20260510023103 53 233 1.0 5.0 0.00 0.46 0.46 88 1010.3
20260510022605 53 152 2.0 5.0 0.00 0.46 0.46 88 1010.2
20260510022103 53 141 2.0 5.0 0.00 0.46 0.46 89 1010.4
20260510021603 53 216 1.0 5.0 0.00 0.46 0.46 89 1010.6
20260510020603 53 192 2.0 5.0 0.00 0.46 0.46 89 1010.6
20260510020103 53 202 2.0 5.0 0.00 0.46 0.46 90 1010.5
20260510015604 53 161 2.0 5.0 0.00 0.46 0.46 90 1010.5
20260510015103 52 208 1.0 5.0 0.00 0.46 0.46 89 1010.5
20260510014604 52 107 1.0 5.0 0.00 0.46 0.46 90 1010.5
20260510013104 52 193 1.0 3.0 0.00 0.46 0.46 89 1010.4
20260510011604 53 221 1.0 5.0 0.00 0.46 0.46 89 1010.3
20260510011103 53 141 1.0 3.0 0.00 0.46 0.46 90 1010.3
20260510010604 53 225 2.0 5.0 0.00 0.46 0.46 90 1010.2
20260510010104 52 166 2.0 5.0 0.00 0.46 0.46 90 1010.5
20260510005603 52 155 2.0 5.0 0.00 0.46 0.46 90 1010.5
20260510005104 52 221 1.0 3.0 0.00 0.46 0.46 90 1010.6
20260510004604 52 220 1.0 5.0 0.00 0.46 0.46 89 1010.3
20260510004103 52 214 1.0 3.0 0.00 0.46 0.46 89 1010.2
20260510003605 52 219 1.0 2.0 0.00 0.46 0.46 89 1010.0
20260510002603 53 219 0.0 2.0 0.00 0.46 0.46 88 1009.9
20260510002104 53 219 1.0 5.0 0.00 0.46 0.46 88 1009.8
20260510001603 53 180 2.0 5.0 0.00 0.46 0.46 87 1009.7
20260510001104 53 161 1.0 2.0 0.00 0.46 0.46 87 1009.7
20260510000605 54 89 0.0 2.0 0.00 0.46 0.46 87 1009.7
20260509235604 54 82 1.0 5.0 0.00 0.46 0.46 87 1009.5
20260509235104 54 228 1.0 5.0 0.00 0.46 0.46 87 1009.4
20260509234604 54 219 1.0 3.0 0.00 0.46 0.46 87 1009.3
20260509234104 54 143 1.0 2.0 0.00 0.46 0.46 87 1009.3
20260509233604 54 152 1.0 5.0 0.00 0.46 0.46 87 1009.2
20260509233103 54 160 1.0 3.0 0.00 0.46 0.46 88 1009.0
20260509232603 54 203 2.0 5.0 0.00 0.46 0.46 88 1009.0
20260509232106 54 194 1.0 5.0 0.00 0.46 0.46 88 1009.0
20260509231603 54 173 2.0 6.0 0.00 0.46 0.46 88 1009.0
20260509231104 54 220 2.0 7.0 0.00 0.46 0.46 88 1009.1
20260509230604 55 215 2.0 5.0 0.00 0.46 0.46 89 1009.1
20260509230105 55 157 2.0 7.0 0.00 0.46 0.46 89 1009.1
20260509225604 55 175 2.0 3.0 0.00 0.46 0.46 89 1009.2
20260509225103 55 156 1.0 5.0 0.00 0.46 0.46 89 1009.2
20260509224106 55 225 2.0 5.0 0.00 0.46 0.46 89 1009.3
20260509223604 55 226 1.0 3.0 0.00 0.46 0.46 89 1009.4
20260509223103 54 225 3.0 5.0 0.00 0.46 0.46 89 1009.4
20260509222604 54 245 2.0 5.0 0.00 0.46 0.46 89 1009.6
20260509222104 54 233 2.0 6.0 0.00 0.46 0.46 90 1009.6
20260509221604 54 262 1.0 5.0 0.00 0.46 0.46 90 1009.5
20260509221104 54 213 3.0 5.0 0.00 0.46 0.46 90 1009.5
20260509220103 54 266 1.0 3.0 0.00 0.46 0.46 91 1009.3
20260509215605 54 189 1.0 5.0 0.00 0.46 0.46 91 1009.5
20260509215105 54 172 1.0 3.0 0.00 0.46 0.46 91 1009.5
20260509214104 54 213 2.0 5.0 0.00 0.46 0.46 91 1009.5
20260509212104 54 90 2.0 6.0 0.00 0.46 0.46 91 1009.7
20260509211603 54 196 3.0 8.0 0.00 0.46 0.46 92 1009.7
20260509210604 53 257 3.0 6.0 0.01 0.46 0.46 92 1009.8
20260509210103 53 203 2.0 6.0 0.01 0.46 0.46 92 1009.8
20260509205604 53 171 2.0 6.0 0.01 0.46 0.46 92 1009.9
20260509205104 53 226 2.0 5.0 0.01 0.46 0.46 92 1010.0
20260509204604 53 236 1.0 7.0 0.01 0.46 0.46 92 1010.1
20260509204105 53 266 1.0 3.0 0.01 0.46 0.46 93 1010.0
20260509203604 53 205 3.0 8.0 0.01 0.46 0.46 93 1010.1
20260509203105 53 212 3.0 7.0 0.01 0.46 0.46 93 1010.2
20260509202604 53 254 2.0 5.0 0.02 0.46 0.46 93 1010.4
20260509202105 53 212 2.0 5.0 0.03 0.46 0.46 93 1010.3
20260509201104 53 242 3.0 8.0 0.05 0.46 0.46 93 1010.4
20260509200603 53 220 2.0 5.0 0.05 0.45 0.45 93 1010.5
20260509195604 53 217 3.0 5.0 0.07 0.45 0.45 93 1010.6
20260509195104 53 232 2.0 5.0 0.07 0.45 0.45 93 1010.7
20260509194604 53 243 3.0 7.0 0.08 0.45 0.45 93 1010.7
20260509193105 53 211 1.0 5.0 0.10 0.45 0.45 93 1010.8
20260509192104 53 241 2.0 3.0 0.10 0.43 0.43 93 1010.9
20260509191604 53 244 1.0 5.0 0.09 0.42 0.42 93 1010.9
20260509191105 53 205 1.0 3.0 0.08 0.41 0.41 93 1011.0
20260509190604 53 166 1.0 1.0 0.08 0.40 0.40 93 1010.9
20260509190104 53 166 1.0 5.0 0.08 0.40 0.40 93 1011.0
20260509185605 52 131 1.0 3.0 0.06 0.38 0.38 93 1010.9
20260509185104 52 146 1.0 2.0 0.06 0.38 0.38 93 1011.0
20260509184104 52 128 1.0 2.0 0.05 0.36 0.36 93 1011.1
20260509183604 52 125 0.0 1.0 0.05 0.35 0.35 93 1011.1
20260509183103 52 125 1.0 2.0 0.05 0.35 0.35 93 1011.0
20260509182104 52 234 1.0 3.0 0.04 0.33 0.33 93 1010.9
20260509181106 51 91 1.0 3.0 0.04 0.33 0.33 93 1010.9
20260509180604 51 80 1.0 3.0 0.04 0.32 0.32 93 1010.9
20260509175604 51 25 1.0 3.0 0.05 0.32 0.32 93 1010.9
20260509174605 51 165 1.0 5.0 0.04 0.31 0.31 93 1011.1
20260509174104 51 169 1.0 5.0 0.04 0.31 0.31 93 1011.1
20260509173604 51 227 1.0 3.0 0.03 0.30 0.30 93 1011.2
20260509173104 51 230 1.0 3.0 0.04 0.30 0.30 93 1011.3
20260509172604 50 98 1.0 2.0 0.04 0.30 0.30 93 1011.3
20260509172104 50 86 1.0 5.0 0.03 0.29 0.29 92 1011.4
20260509171604 50 152 1.0 3.0 0.03 0.29 0.29 92 1011.5
20260509171104 50 208 1.0 3.0 0.03 0.29 0.29 93 1011.6
20260509170604 50 86 1.0 5.0 0.02 0.28 0.28 93 1011.7
20260509170104 51 171 0.0 2.0 0.02 0.28 0.28 93 1011.7
20260509165605 51 151 1.0 5.0 0.01 0.27 0.27 93 1011.7
20260509165105 51 199 0.0 2.0 0.01 0.27 0.27 93 1011.7
20260509164605 51 175 0.0 2.0 0.02 0.27 0.27 93 1011.9
20260509164105 50 177 1.0 3.0 0.02 0.27 0.27 93 1011.9
20260509163604 50 180 0.0 1.0 0.02 0.27 0.27 93 1011.9
20260509163104 50 180 0.0 2.0 0.01 0.26 0.26 93 1012.0
20260509162604 50 181 1.0 2.0 0.01 0.26 0.26 93 1012.1
20260509162104 50 181 0.0 1.0 0.01 0.26 0.26 93 1012.0
20260509161605 49 180 0.0 1.0 0.02 0.26 0.26 93 1012.1
20260509160604 49 191 1.0 2.0 0.02 0.26 0.26 93 1012.3
20260509160104 49 191 1.0 2.0 0.02 0.26 0.26 93 1012.3
20260509155604 49 191 0.0 1.0 0.02 0.26 0.26 93 1012.4
20260509155104 49 191 1.0 2.0 0.03 0.26 0.26 93 1012.4
20260509154604 49 176 0.0 1.0 0.02 0.25 0.25 93 1012.3
20260509154104 48 176 0.0 1.0 0.03 0.25 0.25 93 1012.4
20260509153604 48 176 0.0 2.0 0.03 0.25 0.25 93 1012.5
20260509153104 48 200 0.0 2.0 0.03 0.25 0.25 93 1012.5
20260509152604 48 200 0.0 1.0 0.03 0.25 0.25 93 1012.6
20260509152103 48 200 1.0 2.0 0.04 0.25 0.25 93 1012.8
20260509151604 48 181 1.0 5.0 0.03 0.24 0.24 93 1012.9
20260509151104 48 164 0.0 1.0 0.03 0.24 0.24 93 1012.9
20260509150604 47 163 0.0 2.0 0.04 0.24 0.24 93 1013.0
20260509150104 47 163 0.0 1.0 0.04 0.24 0.24 93 1012.9
20260509145605 47 163 0.0 1.0 0.04 0.24 0.24 93 1012.9
20260509145104 47 163 1.0 2.0 0.04 0.23 0.23 92 1013.0
20260509144604 47 164 1.0 1.0 0.04 0.23 0.23 92 1013.0
20260509144105 47 163 1.0 2.0 0.03 0.22 0.22 92 1013.0
20260509143605 47 164 1.0 2.0 0.03 0.22 0.22 92 1013.2
20260509143104 47 166 2.0 3.0 0.03 0.22 0.22 92 1013.0
20260509142605 46 230 1.0 2.0 0.03 0.22 0.22 92 1013.2
20260509142104 46 229 1.0 1.0 0.02 0.21 0.21 92 1013.0
20260509141604 46 229 0.0 2.0 0.02 0.21 0.21 92 1012.8
20260509141104 46 229 0.0 3.0 0.02 0.21 0.21 92 1012.8
20260509140605 46 230 1.0 2.0 0.01 0.20 0.20 92 1012.8
20260509135605 46 234 1.0 5.0 0.01 0.20 0.20 92 1012.6
20260509135105 46 236 1.0 2.0 0.00 0.19 0.19 92 1012.6
20260509134605 46 83 1.0 3.0 0.00 0.19 0.19 92 1012.6
20260509134104 46 88 0.0 1.0 0.00 0.19 0.19 92 1012.5
20260509133605 46 89 1.0 3.0 0.00 0.19 0.19 92 1012.5
20260509133105 46 200 1.0 2.0 0.00 0.19 0.19 92 1012.6
20260509132605 46 219 1.0 5.0 0.00 0.19 0.19 92 1012.7
20260509132104 46 221 0.0 1.0 0.00 0.19 0.19 92 1012.7
20260509131104 46 222 0.0 2.0 0.00 0.19 0.19 92 1012.8
20260509130604 45 222 1.0 3.0 0.00 0.19 0.19 92 1012.8
20260509130105 45 220 1.0 5.0 0.00 0.19 0.19 92 1012.8
20260509125605 45 223 0.0 3.0 0.00 0.19 0.19 92 1012.9
20260509125104 45 222 0.0 1.0 0.00 0.19 0.19 92 1012.9
20260509124605 45 222 1.0 2.0 0.01 0.19 0.19 92 1012.9
20260509124104 45 225 1.0 1.0 0.01 0.19 0.19 92 1012.8
20260509123604 45 225 0.0 1.0 0.01 0.19 0.19 92 1012.8
20260509123105 45 225 1.0 2.0 0.01 0.19 0.19 92 1012.8
20260509122605 45 226 1.0 2.0 0.01 0.19 0.19 92 1012.9
20260509122104 45 226 0.0 2.0 0.01 0.19 0.19 92 1012.9
20260509121605 45 219 1.0 5.0 0.01 0.19 0.19 92 1012.9
20260509121113 45 175 1.0 5.0 0.02 0.19 0.19 92 1012.9
20260509120603 45 175 1.0 5.0 0.02 0.19 0.19 92 1012.9
20260509120104 45 251 2.0 6.0 0.02 0.19 0.19 92 1012.9
20260509115604 45 209 2.0 5.0 0.02 0.19 0.19 92 1013.0
20260509115103 45 238 2.0 5.0 0.03 0.19 0.19 92 1013.0
20260509114603 44 202 1.0 2.0 0.03 0.19 0.19 92 1013.0
20260509114104 44 202 1.0 5.0 0.02 0.18 0.18 92 1012.9
20260509113604 44 223 2.0 3.0 0.02 0.18 0.18 92 1013.0
20260509113103 44 269 1.0 3.0 0.03 0.18 0.18 92 1013.0
20260509112604 44 311 1.0 3.0 0.03 0.18 0.18 92 1013.0
20260509111605 44 60 2.0 5.0 0.05 0.18 0.18 92 1013.0
20260509111104 44 71 3.0 5.0 0.07 0.18 0.18 92 1012.9
20260509110604 44 86 3.0 6.0 0.07 0.17 0.17 92 1013.1
20260509110104 44 74 3.0 5.0 0.07 0.17 0.17 92 1012.9
20260509105605 44 87 4.0 7.0 0.07 0.17 0.17 92 1012.9
20260509105105 44 83 3.0 6.0 0.07 0.16 0.16 92 1013.0
20260509104603 44 79 3.0 7.0 0.07 0.16 0.16 92 1013.0
20260509102604 44 76 1.0 2.0 0.07 0.15 0.15 91 1013.5
20260509102104 44 79 1.0 2.0 0.06 0.14 0.14 91 1013.5
20260509101603 44 84 0.0 2.0 0.05 0.13 0.13 91 1013.4
20260509101105 44 84 0.0 3.0 0.04 0.11 0.11 91 1013.4
20260509100604 44 84 1.0 3.0 0.04 0.10 0.10 91 1013.4
20260509100104 44 84 2.0 3.0 0.04 0.10 0.10 91 1013.4
20260509095603 44 84 1.0 3.0 0.04 0.10 0.10 91 1013.4
20260509093605 44 96 2.0 5.0 0.04 0.08 0.08 90 1013.2
20260509093103 44 81 2.0 3.0 0.05 0.08 0.08 90 1013.1
20260509092604 44 80 1.0 3.0 0.06 0.08 0.08 90 1013.1
20260509092104 44 80 2.0 3.0 0.06 0.08 0.08 90 1013.2
20260509091603 44 80 2.0 3.0 0.07 0.08 0.08 90 1013.3
20260509091103 44 80 2.0 3.0 0.07 0.07 0.07 89 1013.2
20260509090603 44 82 2.0 3.0 0.06 0.06 0.06 89 1013.3
20260509090105 44 82 1.0 2.0 0.06 0.06 0.06 89 1013.4
20260509085604 44 82 0.0 2.0 0.06 0.06 0.06 88 1013.5
20260509085104 44 82 1.0 2.0 0.05 0.05 0.05 88 1013.6
20260509084604 44 82 1.0 3.0 0.05 0.05 0.05 87 1013.5
20260509083605 44 82 2.0 3.0 0.04 0.04 0.04 86 1013.5
20260509083104 44 83 1.0 2.0 0.03 0.03 0.03 85 1013.7
20260509082604 44 83 1.0 2.0 0.02 0.02 0.02 84 1013.7
20260509082104 44 83 0.0 0.0 0.02 0.02 0.02 84 1013.6
20260509081604 44 83 0.0 1.0 0.01 0.01 0.01 83 1013.6